Regional Weather Roundup
Issued by NWS

Home | Current Version | Previous Version | Text Only | Print | Product List | Glossary Off
Versions: 1 2 3 4 5 6 7 8 9 10 11 12 13 14 15 16 17 18 19 20 21 22 23 24 25 26 27 28 29 30 31 32 33 34 35 36 37 38 39 40 41 42 43 44 45 46 47 48 49 50

000
ASUS43 KIND 211859
RWRIN

WEATHER ROUNDUP FOR INDIANA
NATIONAL WEATHER SERVICE INDIANAPOLIS IN
200 PM EST SUN JAN 21 2018

NOTE: "FAIR" INDICATES FEW OR NO CLOUDS BELOW 12,000 FEET WITH NO
SIGNIFICANT WEATHER AND/OR OBSTRUCTIONS TO VISIBILITY.

* - STATION DOES NOT REPORT WEATHER SUCH AS PRECIPITATION OR FOG.

+ - STATION NOT QUALITY CONTROLLED BY THE NATIONAL WEATHER SERVICE.
    USE DATA WITH CAUTION...ESPECIALLY DEWPOINT AND RELATIVE
    HUMIDITY OBSERVATIONS.

INZ001>003-010>013-019-020-212000-
NORTHWEST INDIANA

CITY           SKY/WX    TMP DP  RH WIND       PRES   REMARKS
GARY /AIRPORT/ CLOUDY    46  45  93 VRB6      29.93F FOG
KNOX *+        CLOUDY    41  41 100 S8        29.95F VSB 1/2
MONTICELLO +   FOG       44  43  95 CALM      29.95F VSB<1/4

$$

LMZ046-743>745-212000-
SOUTHERN LAKE MICHIGAN

STATION/POSITION TIME  TEMP    WIND        PRES    WAVE
                       AIR SEA DIR/SP/G            HT
                 (UTC) (F)     (DEG/KT/KT) (MB)    (FT)
BURNS HARBOR     1840   42     180/  9/ 12 1014.2F
MICHIGAN CITY    1830   41     150/  6/  8   N/A

$$

INZ004-005-014>016-021>024-212000-
NORTH CENTRAL INDIANA

CITY           SKY/WX    TMP DP  RH WIND       PRES   REMARKS
GOSHEN         FOG       42  41  96 S6        29.95F VSB 1/4
SOUTH BEND     FOG       42  42 100 S5        29.95F VSB 1/4

$$

INZ006>009-017-018-025>027-212000-
NORTHEAST INDIANA

CITY           SKY/WX    TMP DP  RH WIND       PRES   REMARKS
FORT WAYNE     FOG       45  44  97 SW7       29.98F VSB 1/4
KENDALLVILLE + FOG       42  42 100 S5        29.97F VSB 1/4

$$

INZ028-029-035-036-043>045-051>053-212000-
WEST CENTRAL INDIANA

CITY           SKY/WX    TMP DP  RH WIND       PRES   REMARKS
LAFAYETTE      FOG       47  47 100 S7        29.95F VSB 1
TERRE HAUTE    CLOUDY    49  47  93 S14       29.98F FOG

$$

INZ030>032-037>040-046>048-054>057-064-065-212000-
CENTRAL INDIANA

CITY           SKY/WX    TMP DP  RH WIND       PRES   REMARKS
COLUMBUS       CLOUDY    50  46  87 S14       30.03F
GREENWOOD *+   CLOUDY    51  47  87 S10       30.01F
INDIANAPOLIS   CLOUDY    49  48  97 S12       29.99F FOG
-EAGLE CREEK   CLOUDY    49  47  93 S6        29.98F FOG
MT COMFORT *+  CLOUDY    48  48 100 S9        29.99F
SHELBYVILLE    CLOUDY    50  45  83 S10       30.01

$$

INZ033-034-041-042-049-050-058-059-212000-
EAST CENTRAL INDIANA

CITY           SKY/WX    TMP DP  RH WIND       PRES   REMARKS
MUNCIE         CLOUDY    50  46  86 SW9       29.99F
RICHMOND +     CLOUDY    45  45 100 S9        30.02F

$$

INZ060-061-067>069-081>083-085>088-212000-
SOUTHWEST INDIANA

CITY           SKY/WX    TMP DP  RH WIND       PRES   REMARKS
EVANSVILLE     CLOUDY    51  50  96 SW10      30.03F
HUNTINGBURG +  CLOUDY    52  48  86 S10       30.04F

$$

INZ062-063-066-070>080-084-089>092-212000-
SOUTH CENTRAL AND SOUTHEAST INDIANA

CITY           SKY/WX    TMP DP  RH WIND       PRES   REMARKS
BLOOMINGTON    CLOUDY    52  48  86 S10       30.00F
MADISON *+     CLOUDY    52  45  76 S10       30.07F
SEYMOUR +      CLOUDY    55  48  76 S9        30.03F

$$





USA.gov is the U.S. government's official web portal to all federal, state and local government web resources and services.